TimeEST,TemperatureF,Dew PointF,Humidity,Sea Level PressureIn,VisibilityMPH,Wind Direction,Wind SpeedMPH,Gust SpeedMPH,PrecipitationIn,Events,Conditions,WindDirDegrees,DateUTC
12:52 AM,25.0,19.0,78,30.01,8.0,Calm,Calm,-,N/A,,Clear,0,2013-02-15 05:52:00
1:52 AM,23.0,18.0,81,30.02,7.0,Calm,Calm,-,N/A,,Clear,0,2013-02-15 06:52:00
2:52 AM,23.0,19.0,85,30.01,7.0,Calm,Calm,-,N/A,,Clear,0,2013-02-15 07:52:00
3:47 AM,21.2,17.6,86,30.00,7.0,Calm,Calm,-,N/A,,Mostly Cloudy,0,2013-02-15 08:47:00
3:52 AM,21.9,18.0,85,30.01,8.0,Calm,Calm,-,N/A,,Mostly Cloudy,0,2013-02-15 08:52:00
4:52 AM,27.0,23.0,85,30.01,8.0,Variable,3.5,-,N/A,,Overcast,0,2013-02-15 09:52:00
5:29 AM,25.0,21.0,85,30.01,7.0,Calm,Calm,-,N/A,,Partly Cloudy,0,2013-02-15 10:29:00
5:52 AM,24.1,19.9,84,30.01,8.0,Calm,Calm,-,N/A,,Clear,0,2013-02-15 10:52:00
6:52 AM,24.1,19.0,81,30.00,6.0,SE,6.9,-,N/A,,Haze,140,2013-02-15 11:52:00
7:06 AM,28.0,26.1,92,30.01,1.5,SSE,3.5,-,N/A,,Clear,160,2013-02-15 12:06:00
7:09 AM,28.0,26.1,92,30.01,0.8,Calm,Calm,-,N/A,,Clear,0,2013-02-15 12:09:00
7:17 AM,25.0,21.9,88,30.01,0.2,Calm,Calm,-,N/A,Fog,Light Freezing Fog,0,2013-02-15 12:17:00
7:26 AM,24.1,21.0,88,30.01,2.0,Calm,Calm,-,N/A,,Mostly Cloudy,0,2013-02-15 12:26:00
7:38 AM,26.1,23.0,88,30.02,1.2,Calm,Calm,-,N/A,,Overcast,0,2013-02-15 12:38:00
7:45 AM,26.1,24.1,92,30.02,0.2,Calm,Calm,-,N/A,Fog,Light Freezing Fog,0,2013-02-15 12:45:00
7:52 AM,27.0,24.1,89,30.02,0.2,Calm,Calm,-,N/A,Fog,Light Freezing Fog,0,2013-02-15 12:52:00
8:00 AM,28.0,26.1,92,30.02,2.0,Calm,Calm,-,N/A,,Overcast,0,2013-02-15 13:00:00
8:08 AM,28.9,27.0,92,30.02,3.0,Calm,Calm,-,N/A,,Mostly Cloudy,0,2013-02-15 13:08:00
8:22 AM,32.0,30.0,92,30.02,2.5,Calm,Calm,-,N/A,,Scattered Clouds,0,2013-02-15 13:22:00
8:44 AM,37.9,34.0,86,30.02,3.0,SSW,5.8,-,N/A,,Clear,200,2013-02-15 13:44:00
8:52 AM,39.0,34.0,82,30.03,4.0,SSW,5.8,-,N/A,,Haze,200,2013-02-15 13:52:00
9:52 AM,43.0,32.0,65,30.03,8.0,SSW,11.5,19.6,N/A,,Clear,210,2013-02-15 14:52:00
10:52 AM,46.0,28.9,51,30.02,10.0,SSW,8.1,18.4,N/A,,Clear,200,2013-02-15 15:52:00
11:52 AM,46.9,30.0,52,30.00,10.0,SSW,10.4,19.6,N/A,,Clear,210,2013-02-15 16:52:00
12:52 PM,46.9,32.0,56,29.98,10.0,South,12.7,21.9,N/A,,Clear,190,2013-02-15 17:52:00
1:52 PM,48.0,33.1,56,29.96,10.0,SSW,11.5,17.3,N/A,,Clear,210,2013-02-15 18:52:00
2:52 PM,46.9,35.1,63,29.96,10.0,South,10.4,20.7,N/A,,Clear,190,2013-02-15 19:52:00
3:52 PM,46.9,34.0,61,29.95,10.0,SSW,9.2,-,N/A,,Clear,200,2013-02-15 20:52:00
4:52 PM,45.0,33.1,63,29.94,10.0,South,5.8,-,N/A,,Clear,190,2013-02-15 21:52:00
5:52 PM,43.0,33.1,68,29.95,10.0,South,6.9,-,N/A,,Clear,180,2013-02-15 22:52:00
6:52 PM,41.0,34.0,76,29.96,10.0,Variable,6.9,-,N/A,,Clear,0,2013-02-15 23:52:00
7:52 PM,39.9,34.0,79,29.95,10.0,South,5.8,-,N/A,,Clear,180,2013-02-16 00:52:00
8:52 PM,39.0,33.1,79,29.96,10.0,Calm,Calm,-,N/A,,Clear,0,2013-02-16 01:52:00
9:52 PM,33.1,30.0,89,29.96,7.0,Calm,Calm,-,N/A,,Clear,0,2013-02-16 02:52:00
10:34 PM,30.0,28.0,92,29.95,1.0,Calm,Calm,-,N/A,,Clear,0,2013-02-16 03:34:00
10:41 PM,30.0,27.0,88,29.95,0.5,Calm,Calm,-,N/A,Fog,Light Freezing Fog,0,2013-02-16 03:41:00
10:49 PM,30.2,28.4,93,29.95,2.0,ESE,3.5,-,N/A,,Clear,120,2013-02-16 03:49:00
10:52 PM,30.9,28.0,89,29.95,5.0,Calm,Calm,-,N/A,,Clear,0,2013-02-16 03:52:00
11:05 PM,28.9,27.0,92,29.95,5.0,Calm,Calm,-,N/A,,Scattered Clouds,0,2013-02-16 04:05:00
11:12 PM,30.0,27.0,88,29.95,2.5,Calm,Calm,-,N/A,,Mostly Cloudy,0,2013-02-16 04:12:00
11:15 PM,30.0,27.0,88,29.95,1.2,Calm,Calm,-,N/A,,Mostly Cloudy,0,2013-02-16 04:15:00
11:23 PM,30.0,27.0,88,29.95,0.2,Calm,Calm,-,N/A,Fog,Light Freezing Fog,0,2013-02-16 04:23:00
11:52 PM,30.9,28.9,92,29.95,0.2,Calm,Calm,-,N/A,Fog,Light Freezing Fog,0,2013-02-16 04:52:00